Home > Weather > Pomona > Past weeks

Flag for USA Past Weather in Pomona, California, USA — Yesterday and Last 2 Weeks

Now
71 °F

Sunny.


Feels Like: 75 °F
Forecast: 62 / 84 °F
Wind: 8 mph from West

Location: Chino Airport

Current Time: Aug 25, 2016 at 8:25:38 PM

Latest Report: Aug 25, 2016 at 7:53 PM


Visibility: 10 mi

Pressure: 29.89 "Hg

Humidity: 63%

Dew Point: 58 °F

Location of PomonaLocation

Past Weather in Pomona — Graph

°F

Pomona Temperature Yesterday

Maximum temperature yesterday: 95 °F (at 1:53 PM)
Minimum temperature yesterday: 64 °F (at 5:53 AM)
Average temperature yesterday: 77 °F

High & Low Weather Summary for the Past Weeks

 TemperatureHumidityPressure
High107 °F (Aug 15, 1:53 PM)90% (Aug 11, 6:53 AM)30.04 "Hg (Aug 11, 6:53 AM)
Low58 °F (Aug 17, 5:53 AM)7% (Aug 16, 11:53 AM)29.77 "Hg (Aug 17, 6:53 PM)
Average79 °F49%29.90 "Hg
* Reported Aug 10 6:53 PM — Aug 25 6:53 PM, Pomona, Weather by CustomWeather, © 2016

Note: Actual official high and low records may vary slightly from our data, if they occured in-between our weather recording intervals... More about our weather records

Advertising

Pomona Weather History for the Previous 24 Hours

Scroll right to see more
 ConditionsComfort  
Time TempWeatherWind HumidityBarometerVisibility
6:53 PM
Thu, Aug 25
74 °FSunny.16 mph60%29.87 "Hg10 mi
5:53 PM79 °FSunny.18 mph50%29.86 "Hg10 mi
4:53 PM83 °FSunny.17 mph44%29.86 "Hg10 mi
3:53 PM87 °FSunny.15 mph39%29.86 "Hg10 mi
2:53 PM88 °FPassing clouds.17 mph38%29.87 "Hg8 mi
1:53 PM91 °FPassing clouds.13 mph33%29.88 "Hg8 mi
12:53 PM89 °FPassing clouds.7 mph32%29.90 "Hg7 mi
11:53 AM85 °FSunny.5 mph39%29.93 "Hg7 mi
10:53 AM81 °FSunny.No wind45%29.96 "Hg6 mi
9:53 AM75 °FSunny.5 mph60%29.96 "Hg6 mi
8:53 AM71 °FSunny.No wind68%29.96 "Hg6 mi
7:53 AM67 °FHaze.5 mph79%29.97 "Hg5 mi
6:53 AM64 °FPassing clouds.5 mph84%29.96 "Hg7 mi
5:53 AM64 °FClear.3 mph84%29.94 "Hg6 mi
4:53 AM65 °FClear.No wind78%29.93 "Hg6 mi
3:53 AM65 °FClear.No wind81%29.93 "Hg7 mi
2:53 AM67 °FClear.No wind76%29.93 "Hg7 mi
1:53 AM67 °FClear.No wind76%29.93 "Hg6 mi
12:53 AM68 °FClear.No wind73%29.94 "Hg7 mi
11:53 PM
Wed, Aug 24
69 °FClear.No wind70%29.95 "Hg8 mi
10:53 PM70 °FClear.3 mph68%29.96 "Hg8 mi
9:53 PM73 °FClear.8 mph59%29.96 "Hg9 mi
8:53 PM75 °FClear.10 mph54%29.94 "Hg9 mi
Weather by CustomWeather, © 2016

See weather overviewHow to use our weather pages